Orbital Elements at Epoch 2459000.5 (2020-May-31.0) TDB
Reference: JPL 20 (heliocentric ecliptic J2000)
Element | Value | Uncertainty (1-sigma) | Units |
e | .1698090756437105 | 6.0792e-08 | |
a | 2.384092034506453 | 1.4118e-08 | au |
q | 1.979251569877379 | 1.4301e-07 | au |
i | 4.580441893894995 | 5.7244e-06 | deg |
node | 67.97519599007197 | 7.2428e-05 | deg |
peri | 283.4770384734209 | 7.4474e-05 | deg |
M | 214.3473987695425 | 1.9254e-05 | deg |
tp | 2459544.499745269597 (2021-Nov-25.99974527) | 7.5039e-05 | TDB |
period | 1344.568560002503 3.68 | 1.1943e-05 3.27e-08 | d yr |
n | .2677438776341237 | 2.3783e-09 | deg/d |
Q | 2.788932499135527 | 1.6515e-08 | au |
|
| | Orbit Determination Parameters
Additional Information
|